Back to catalog

PEGASUS R/B

AliveVLEO
NORAD 69793·ROCKET BODY·🇺🇸 United States

Launched Jul 3, 2026 from Ronald Reagan Space and Missile Test Range

Loading…

Next Passes (next 24 hours)

TLE

FreshSource: Space-Track

Epoch: Sep 14, 2026, 03:23 UTC

1 69793U 26152B   26257.14097731  .00064893  00000-0  46462-3 0  9999
2 69793  20.5962 217.8225 0018134 121.6293 238.5926 15.71684660 11436

Track PEGASUS R/B in real time with AllMySat

Download on the App Store